QPF
0.08 0.08 0.09 0.08 0.08 0.08 0.08 0.07 0.06 0.06 0.06 0.05 0.04 0.05 0.06 0.06 0.07 0.05 0.03 0.05 0.05 0.04 0.02 0.01 0.01 0.02 0.02 0.02 0.02 0.02 0.01 0.01 0.01 0.02 0.03 0.03 0.03 0.04
0.08 0.07 0.07 0.05 0.05 0.05 0.07 0.08 0.08 0.07 0.07 0.06 0.06 0.05 0.05 0.06 0.05 0.05 0.04 0.06 0.05 0.04 0.03 0.02 0.02 0.02 0.02 0.02 0.02 0.02 0.01 0.01 0.00 0.00 0.01 0.01 0.03 0.04
0.06 0.05 0.05 0.04 0.05 0.04 0.05 0.06 0.07 0.07 0.06 0.04 0.04 0.04 0.03 0.04 0.04 0.04 0.04 0.04 0.05 0.05 0.04 0.03 0.03 0.02 0.02 0.02 0.02 0.02 0.01 0.01 0.01 0.01 0.01 0.01 0.02 0.02
0.04 0.04 0.04 0.03 0.04 0.04 0.04 0.04 0.05 0.05 0.04 0.03 0.03 0.04 0.04 0.04 0.05 0.05 0.04 0.04 0.04 0.06 0.04 0.03 0.04 0.03 0.03 0.02 0.01 0.01 0.01 0.01 0.01 0.01 0.01 0.01 0.01 0.01
0.03 0.03 0.03 0.03 0.03 0.04 0.04 0.04 0.04 0.03 0.04 0.03 0.02 0.04 0.04 0.03 0.04 0.04 0.04 0.06 0.04 0.06 0.06 0.06 0.05 0.03 0.03 0.02 0.02 0.02 0.02 0.02 0.01 0.01 0.01 0.01 0.01 0.01
0.03 0.04 0.03 0.03 0.03 0.04 0.04 0.04 0.04 0.03 0.04 0.03 0.02 0.02 0.02 0.03 0.04 0.04 0.04 0.05 0.05 0.04 0.04 0.04 0.04 0.03 0.03 0.02 0.02 0.02 0.03 0.02 0.02 0.02 0.02 0.01 0.01 0.02
0.04 0.03 0.03 0.05 0.05 0.05 0.04 0.04 0.03 0.03 0.03 0.03 0.02 0.03 0.03 0.03 0.04 0.05 0.04 0.04 0.06 0.06 0.04 0.02 0.02 0.02 0.02 0.02 0.01 0.02 0.02 0.02 0.02 0.02 0.02 0.02 0.01 0.02
0.07 0.05 0.05 0.06 0.04 0.03 0.03 0.03 0.03 0.03 0.03 0.03 0.03 0.03 0.03 0.03 0.05 0.06 0.07 0.06 0.05 0.07 0.06 0.03 0.02 0.02 0.01 0.01 0.02 0.02 0.02 0.01 0.01 0.01 0.02 0.02 0.02 0.02
0.07 0.07 0.05 0.04 0.03 0.03 0.02 0.02 0.02 0.02 0.02 0.03 0.03 0.03 0.03 0.04 0.06 0.06 0.08 0.09 0.07 0.08 0.11 0.06 0.03 0.03 0.02 0.01 0.02 0.01 0.01 0.02 0.02 0.02 0.01 0.01 0.02 0.03
0.05 0.06 0.06 0.05 0.04 0.04 0.04 0.04 0.04 0.03 0.02 0.03 0.03 0.03 0.04 0.05 0.06 0.07 0.09 0.12 0.11 0.09 0.14 0.11 0.05 0.04 0.04 0.04 0.03 0.02 0.01 0.01 0.01 0.02 0.02 0.02 0.03 0.03
0.05 0.04 0.03 0.04 0.04 0.05 0.06 0.07 0.06 0.04 0.03 0.03 0.03 0.03 0.03 0.04 0.05 0.06 0.07 0.09 0.09 0.08 0.11 0.12 0.08 0.07 0.06 0.06 0.05 0.04 0.02 0.01 0.01 0.01 0.02 0.02 0.03 0.04
0.04 0.04 0.04 0.04 0.04 0.05 0.07 0.08 0.07 0.06 0.05 0.05 0.05 0.04 0.04 0.04 0.05 0.05 0.05 0.07 0.09 0.08 0.08 0.11 0.11 0.11 0.09 0.07 0.07 0.07 0.04 0.03 0.03 0.02 0.02 0.03 0.03 0.03
0.02 0.02 0.03 0.03 0.03 0.03 0.05 0.07 0.08 0.07 0.07 0.08 0.08 0.07 0.07 0.07 0.06 0.06 0.07 0.07 0.08 0.09 0.09 0.12 0.14 0.13 0.11 0.08 0.07 0.07 0.08 0.06 0.05 0.05 0.04 0.04 0.05 0.05
0.03 0.03 0.03 0.03 0.03 0.02 0.03 0.03 0.04 0.05 0.06 0.06 0.07 0.08 0.08 0.07 0.06 0.06 0.07 0.08 0.08 0.10 0.12 0.12 0.12 0.14 0.14 0.11 0.10 0.09 0.08 0.09 0.10 0.09 0.07 0.07 0.07 0.08
0.04 0.04 0.05 0.05 0.04 0.03 0.03 0.03 0.03 0.03 0.03 0.04 0.05 0.05 0.06 0.06 0.06 0.06 0.06 0.07 0.07 0.08 0.10 0.12 0.11 0.12 0.13 0.12 0.10 0.10 0.11 0.12 0.12 0.12 0.10 0.07 0.05 0.04
0.05 0.06 0.07 0.06 0.04 0.03 0.02 0.03 0.03 0.03 0.04 0.04 0.04 0.04 0.04 0.04 0.04 0.05 0.06 0.06 0.06 0.06 0.07 0.10 0.10 0.10 0.10 0.11 0.11 0.09 0.09 0.09 0.08 0.07 0.06 0.05 0.04 0.04
0.04 0.05 0.05 0.04 0.03 0.02 0.02 0.01 0.01 0.02 0.02 0.02 0.02 0.02 0.03 0.03 0.03 0.03 0.04 0.05 0.06 0.07 0.08 0.09 0.11 0.10 0.07 0.08 0.09 0.08 0.08 0.08 0.07 0.07 0.06 0.06 0.06 0.05
0.03 0.03 0.03 0.03 0.02 0.02 0.02 0.02 0.02 0.02 0.01 0.01 0.01 0.01 0.02 0.02 0.02 0.02 0.02 0.03 0.03 0.04 0.04 0.05 0.07 0.09 0.08 0.08 0.09 0.09 0.08 0.07 0.07 0.07 0.07 0.06 0.08 0.08
0.02 0.02 0.02 0.02 0.03 0.03 0.03 0.02 0.02 0.02 0.02 0.02 0.01 0.01 0.02 0.02 0.02 0.02 0.02 0.02 0.02 0.03 0.03 0.02 0.04 0.05 0.07 0.07 0.08 0.08 0.07 0.06 0.07 0.07 0.07 0.07 0.07 0.08
0.02 0.02 0.01 0.01 0.02 0.03 0.03 0.03 0.02 0.02 0.02 0.01 0.02 0.02 0.02 0.03 0.03 0.03 0.02 0.02 0.02 0.02 0.02 0.02 0.02 0.03 0.04 0.06 0.08 0.09 0.09 0.07 0.06 0.07 0.08 0.08 0.07 0.08
0.02 0.02 0.02 0.02 0.02 0.02 0.02 0.03 0.04 0.04 0.03 0.02 0.02 0.02 0.02 0.02 0.03 0.03 0.03 0.03 0.03 0.02 0.02 0.02 0.02 0.04 0.05 0.06 0.07 0.07 0.09 0.10 0.08 0.06 0.07 0.08 0.08 0.08
0.02 0.02 0.02 0.02 0.02 0.03 0.03 0.04 0.04 0.04 0.03 0.03 0.03 0.02 0.02 0.02 0.03 0.03 0.03 0.03 0.03 0.02 0.02 0.02 0.03 0.05 0.05 0.05 0.07 0.08 0.08 0.08 0.09 0.07 0.06 0.06 0.07 0.07
0.02 0.02 0.03 0.03 0.03 0.03 0.04 0.04 0.04 0.04 0.03 0.04 0.05 0.04 0.02 0.02 0.03 0.03 0.03 0.03 0.03 0.03 0.03 0.03 0.03 0.05 0.05 0.05 0.06 0.08 0.08 0.08 0.08 0.08 0.06 0.06 0.06 0.06
MSLP
1009.36 1009.67 1010.04 1010.48 1010.97 1011.51 1012.06 1012.62 1013.17 1013.69 1014.18 1014.64 1015.06 1015.45 1015.82 1016.18 1016.52 1016.87 1017.21 1017.57 1017.92 1018.28 1018.63 1018.95 1019.25 1019.50 1019.71 1019.87 1019.98 1020.06 1020.11 1020.15 1020.17 1020.19 1020.20 1020.20 1020.19 1020.17
1008.77 1009.01 1009.31 1009.67 1010.10 1010.58 1011.11 1011.67 1012.24 1012.81 1013.37 1013.91 1014.43 1014.91 1015.38 1015.81 1016.23 1016.64 1017.03 1017.43 1017.81 1018.18 1018.53 1018.85 1019.13 1019.37 1019.57 1019.72 1019.82 1019.90 1019.96 1020.00 1020.03 1020.06 1020.08 1020.08 1020.07 1020.05
1008.36 1008.55 1008.79 1009.09 1009.45 1009.87 1010.34 1010.86 1011.42 1011.99 1012.59 1013.17 1013.75 1014.32 1014.86 1015.38 1015.87 1016.35 1016.80 1017.24 1017.65 1018.03 1018.38 1018.68 1018.95 1019.17 1019.34 1019.48 1019.58 1019.67 1019.74 1019.80 1019.87 1019.92 1019.97 1019.99 1020.00 1019.97
1008.12 1008.29 1008.48 1008.72 1009.02 1009.37 1009.78 1010.25 1010.76 1011.32 1011.90 1012.50 1013.12 1013.73 1014.33 1014.92 1015.48 1016.02 1016.53 1017.01 1017.44 1017.83 1018.17 1018.46 1018.70 1018.89 1019.04 1019.17 1019.27 1019.37 1019.47 1019.58 1019.69 1019.79 1019.88 1019.94 1019.97 1019.96
1007.98 1008.14 1008.32 1008.52 1008.77 1009.07 1009.42 1009.83 1010.29 1010.80 1011.36 1011.95 1012.57 1013.20 1013.83 1014.47 1015.08 1015.67 1016.23 1016.73 1017.19 1017.58 1017.91 1018.18 1018.39 1018.55 1018.68 1018.80 1018.91 1019.03 1019.17 1019.32 1019.48 1019.65 1019.79 1019.90 1019.96 1019.97
1007.87 1008.03 1008.20 1008.39 1008.61 1008.88 1009.19 1009.56 1009.98 1010.45 1010.97 1011.54 1012.13 1012.76 1013.41 1014.06 1014.70 1015.31 1015.89 1016.42 1016.88 1017.27 1017.59 1017.83 1018.02 1018.15 1018.26 1018.37 1018.49 1018.63 1018.80 1019.01 1019.23 1019.46 1019.66 1019.82 1019.92 1019.94
1007.67 1007.83 1008.00 1008.20 1008.44 1008.71 1009.02 1009.38 1009.78 1010.23 1010.72 1011.25 1011.83 1012.43 1013.06 1013.70 1014.34 1014.96 1015.54 1016.07 1016.53 1016.91 1017.21 1017.43 1017.59 1017.71 1017.80 1017.90 1018.02 1018.18 1018.38 1018.62 1018.90 1019.17 1019.42 1019.62 1019.75 1019.80
1007.30 1007.46 1007.65 1007.88 1008.16 1008.47 1008.83 1009.22 1009.64 1010.09 1010.58 1011.09 1011.63 1012.20 1012.80 1013.41 1014.02 1014.62 1015.19 1015.70 1016.15 1016.51 1016.79 1017.00 1017.14 1017.23 1017.31 1017.39 1017.51 1017.67 1017.89 1018.15 1018.45 1018.75 1019.03 1019.26 1019.40 1019.46
1006.73 1006.89 1007.11 1007.39 1007.74 1008.14 1008.58 1009.04 1009.52 1010.02 1010.52 1011.03 1011.55 1012.09 1012.64 1013.20 1013.77 1014.32 1014.85 1015.33 1015.75 1016.10 1016.36 1016.55 1016.67 1016.75 1016.81 1016.88 1016.98 1017.13 1017.34 1017.60 1017.89 1018.19 1018.47 1018.69 1018.84 1018.90
1006.01 1006.16 1006.41 1006.77 1007.21 1007.72 1008.28 1008.86 1009.44 1010.00 1010.55 1011.07 1011.59 1012.08 1012.59 1013.09 1013.59 1014.08 1014.56 1015.00 1015.39 1015.71 1015.95 1016.13 1016.24 1016.31 1016.35 1016.40 1016.47 1016.59 1016.76 1016.98 1017.24 1017.50 1017.75 1017.95 1018.09 1018.13
1005.24 1005.40 1005.69 1006.13 1006.68 1007.32 1008.01 1008.72 1009.41 1010.07 1010.67 1011.23 1011.73 1012.20 1012.64 1013.07 1013.50 1013.93 1014.34 1014.73 1015.07 1015.37 1015.60 1015.76 1015.87 1015.93 1015.95 1015.98 1016.01 1016.09 1016.20 1016.36 1016.55 1016.75 1016.95 1017.10 1017.20 1017.22
1004.59 1004.76 1005.10 1005.61 1006.27 1007.03 1007.85 1008.69 1009.49 1010.24 1010.90 1011.48 1011.98 1012.41 1012.80 1013.16 1013.51 1013.85 1014.19 1014.52 1014.83 1015.10 1015.31 1015.47 1015.57 1015.62 1015.64 1015.63 1015.63 1015.64 1015.69 1015.78 1015.89 1016.01 1016.13 1016.23 1016.27 1016.26
1004.21 1004.40 1004.78 1005.36 1006.10 1006.96 1007.89 1008.82 1009.71 1010.52 1011.23 1011.82 1012.30 1012.69 1013.02 1013.31 1013.57 1013.84 1014.11 1014.39 1014.65 1014.89 1015.09 1015.25 1015.35 1015.39 1015.39 1015.36 1015.32 1015.28 1015.26 1015.26 1015.29 1015.33 1015.38 1015.40 1015.40 1015.35
1004.20 1004.41 1004.83 1005.46 1006.25 1007.17 1008.15 1009.14 1010.07 1010.91 1011.62 1012.20 1012.65 1012.99 1013.25 1013.46 1013.65 1013.84 1014.05 1014.27 1014.49 1014.71 1014.90 1015.05 1015.15 1015.20 1015.19 1015.14 1015.07 1014.98 1014.90 1014.83 1014.78 1014.75 1014.72 1014.69 1014.64 1014.56
1004.57 1004.81 1005.25 1005.89 1006.70 1007.62 1008.60 1009.58 1010.50 1011.32 1012.00 1012.54 1012.94 1013.22 1013.41 1013.55 1013.67 1013.80 1013.95 1014.12 1014.31 1014.50 1014.68 1014.83 1014.94 1014.99 1014.98 1014.92 1014.82 1014.70 1014.57 1014.45 1014.34 1014.24 1014.16 1014.08 1013.99 1013.89
1005.24 1005.51 1005.96 1006.58 1007.35 1008.23 1009.15 1010.07 1010.92 1011.67 1012.29 1012.76 1013.10 1013.31 1013.44 1013.52 1013.58 1013.66 1013.75 1013.89 1014.05 1014.23 1014.40 1014.55 1014.66 1014.71 1014.70 1014.64 1014.53 1014.39 1014.23 1014.07 1013.92 1013.78 1013.66 1013.54 1013.43 1013.31
1006.07 1006.36 1006.79 1007.37 1008.07 1008.85 1009.67 1010.48 1011.23 1011.87 1012.40 1012.79 1013.05 1013.21 1013.28 1013.32 1013.34 1013.37 1013.44 1013.55 1013.69 1013.85 1014.02 1014.16 1014.27 1014.33 1014.33 1014.27 1014.15 1014.00 1013.83 1013.64 1013.47 1013.30 1013.15 1013.02 1012.89 1012.76
1006.86 1007.15 1007.56 1008.06 1008.66 1009.33 1010.02 1010.69 1011.31 1011.84 1012.27 1012.58 1012.78 1012.89 1012.93 1012.94 1012.94 1012.96 1013.01 1013.11 1013.23 1013.38 1013.54 1013.68 1013.78 1013.84 1013.84 1013.78 1013.67 1013.51 1013.33 1013.13 1012.94 1012.76 1012.59 1012.45 1012.31 1012.18
1007.45 1007.74 1008.10 1008.53 1009.02 1009.56 1010.11 1010.65 1011.14 1011.57 1011.91 1012.16 1012.32 1012.41 1012.44 1012.45 1012.45 1012.47 1012.52 1012.61 1012.72 1012.86 1013.00 1013.13 1013.23 1013.28 1013.27 1013.21 1013.09 1012.93 1012.75 1012.54 1012.34 1012.14 1011.96 1011.80 1011.65 1011.51
1007.73 1008.01 1008.33 1008.68 1009.08 1009.50 1009.94 1010.36 1010.76 1011.10 1011.38 1011.60 1011.75 1011.84 1011.89 1011.92 1011.94 1011.98 1012.04 1012.13 1012.24 1012.36 1012.48 1012.59 1012.67 1012.71 1012.69 1012.62 1012.49 1012.33 1012.13 1011.91 1011.69 1011.48 1011.28 1011.10 1010.93 1010.77
1007.70 1007.98 1008.26 1008.55 1008.88 1009.22 1009.57 1009.91 1010.24 1010.54 1010.80 1011.01 1011.17 1011.29 1011.38 1011.44 1011.51 1011.57 1011.64 1011.73 1011.84 1011.95 1012.05 1012.13 1012.19 1012.20 1012.16 1012.07 1011.94 1011.76 1011.54 1011.31 1011.07 1010.84 1010.62 1010.41 1010.21 1010.03
1007.45 1007.71 1007.97 1008.24 1008.51 1008.80 1009.11 1009.41 1009.72 1010.00 1010.27 1010.50 1010.70 1010.86 1011.00 1011.11 1011.21 1011.30 1011.39 1011.48 1011.58 1011.67 1011.75 1011.80 1011.83 1011.81 1011.75 1011.65 1011.49 1011.29 1011.06 1010.81 1010.55 1010.29 1010.03 1009.79 1009.57 1009.35
1007.09 1007.36 1007.61 1007.87 1008.13 1008.41 1008.70 1009.00 1009.31 1009.61 1009.90 1010.17 1010.41 1010.62 1010.80 1010.96 1011.09 1011.20 1011.30 1011.39 1011.47 1011.54 1011.59 1011.62 1011.61 1011.58 1011.49 1011.36 1011.19 1010.98 1010.73 1010.46 1010.17 1009.88 1009.60 1009.32 1009.06 1008.81
Thickness
5748 5747 5746 5746 5746 5746 5744 5740 5733 5726 5728 5734 5736 5740 5740 5739 5738 5736 5735 5733 5731 5728 5726 5724 5722 5720 5718 5716 5715 5713 5712 5711 5710 5709 5708 5707 5706 5705
5744 5743 5742 5742 5742 5741 5740 5738 5735 5730 5726 5730 5732 5735 5736 5735 5734 5733 5731 5729 5727 5726 5723 5721 5719 5717 5715 5713 5712 5710 5708 5707 5707 5706 5705 5705 5704 5703
5740 5739 5737 5737 5736 5736 5736 5734 5732 5730 5724 5727 5730 5731 5730 5729 5729 5728 5727 5725 5724 5723 5720 5718 5716 5714 5713 5710 5708 5707 5706 5705 5704 5703 5702 5701 5700 5700
5734 5733 5732 5732 5731 5730 5729 5727 5727 5726 5723 5720 5722 5723 5723 5724 5723 5723 5723 5723 5721 5720 5718 5716 5714 5712 5709 5707 5705 5703 5702 5701 5700 5699 5698 5698 5697 5696
5729 5728 5726 5725 5724 5724 5723 5722 5722 5722 5720 5717 5716 5717 5717 5718 5716 5717 5718 5717 5717 5717 5715 5713 5711 5709 5707 5704 5702 5700 5698 5697 5695 5694 5694 5693 5692 5691
5724 5723 5721 5720 5718 5717 5717 5716 5716 5714 5713 5711 5710 5709 5709 5710 5709 5708 5708 5710 5710 5712 5711 5710 5708 5706 5703 5701 5699 5697 5695 5693 5691 5690 5689 5688 5688 5687
5717 5716 5715 5714 5713 5711 5711 5709 5708 5706 5705 5703 5702 5701 5701 5700 5700 5701 5701 5702 5703 5705 5704 5704 5703 5700 5698 5696 5694 5692 5691 5689 5687 5685 5684 5683 5682 5682
5710 5709 5708 5707 5705 5704 5703 5703 5701 5699 5697 5695 5694 5693 5693 5693 5694 5694 5693 5693 5693 5698 5696 5697 5697 5695 5694 5692 5690 5688 5686 5684 5682 5680 5679 5678 5677 5675
5703 5701 5701 5700 5698 5697 5696 5695 5694 5693 5691 5690 5688 5687 5687 5688 5687 5687 5687 5686 5686 5690 5688 5688 5690 5689 5690 5689 5687 5684 5682 5680 5677 5675 5673 5672 5670 5669
5695 5694 5692 5690 5689 5688 5688 5686 5686 5686 5685 5684 5684 5684 5684 5683 5682 5682 5682 5682 5683 5684 5683 5679 5682 5682 5685 5683 5682 5679 5677 5674 5672 5670 5667 5665 5663 5662
5688 5687 5684 5682 5680 5679 5679 5677 5677 5677 5678 5678 5677 5677 5677 5676 5675 5674 5674 5672 5672 5674 5676 5673 5674 5674 5675 5676 5675 5673 5671 5668 5666 5664 5661 5659 5656 5654
5680 5679 5677 5675 5672 5670 5669 5668 5667 5668 5668 5669 5669 5669 5669 5669 5668 5666 5666 5663 5663 5665 5669 5666 5666 5665 5663 5667 5667 5665 5663 5660 5658 5656 5654 5651 5648 5645
5671 5671 5670 5668 5665 5662 5660 5659 5658 5658 5658 5658 5659 5660 5661 5661 5661 5660 5660 5658 5656 5656 5660 5659 5657 5656 5654 5655 5657 5657 5655 5653 5651 5648 5645 5643 5640 5638
5663 5662 5661 5659 5657 5655 5652 5651 5651 5650 5650 5650 5649 5650 5650 5651 5653 5653 5653 5652 5651 5650 5651 5651 5649 5647 5646 5644 5645 5646 5647 5646 5644 5642 5639 5636 5632 5631
5655 5654 5652 5650 5648 5646 5645 5644 5643 5642 5641 5640 5640 5641 5642 5643 5645 5645 5646 5645 5644 5644 5644 5643 5641 5641 5639 5637 5637 5637 5637 5637 5636 5634 5632 5629 5626 5624
5645 5645 5643 5642 5640 5639 5638 5636 5635 5634 5633 5632 5632 5634 5636 5636 5636 5636 5635 5635 5634 5634 5635 5635 5634 5632 5631 5630 5630 5629 5629 5628 5627 5625 5623 5621 5620 5618
5636 5636 5636 5634 5633 5632 5631 5630 5629 5628 5626 5625 5625 5626 5626 5626 5626 5627 5626 5626 5625 5624 5624 5626 5625 5625 5623 5621 5620 5619 5619 5618 5618 5616 5614 5612 5611 5609
5628 5629 5628 5626 5625 5624 5624 5623 5622 5620 5619 5618 5618 5618 5617 5616 5616 5617 5617 5616 5615 5615 5615 5615 5615 5615 5613 5612 5611 5610 5610 5609 5608 5607 5606 5603 5602 5601
5621 5622 5621 5619 5618 5617 5616 5615 5614 5614 5612 5611 5610 5609 5609 5609 5608 5607 5607 5607 5606 5606 5606 5606 5605 5603 5601 5601 5601 5600 5600 5600 5599 5598 5597 5596 5594 5593
5618 5616 5615 5613 5612 5611 5609 5608 5606 5606 5604 5602 5601 5600 5600 5600 5599 5599 5599 5599 5598 5598 5597 5597 5596 5594 5593 5593 5592 5591 5590 5590 5590 5589 5589 5587 5586 5584
5613 5611 5610 5608 5607 5605 5603 5601 5599 5597 5595 5594 5593 5592 5592 5591 5591 5591 5591 5590 5590 5589 5589 5588 5588 5588 5588 5586 5584 5582 5581 5581 5581 5580 5580 5578 5577 5575
5608 5606 5605 5602 5600 5597 5596 5593 5591 5590 5588 5586 5585 5585 5585 5584 5583 5583 5583 5582 5581 5581 5581 5581 5580 5580 5578 5576 5575 5573 5572 5571 5571 5570 5570 5570 5569 5567
5603 5601 5600 5597 5595 5592 5590 5588 5586 5584 5581 5579 5577 5576 5576 5576 5576 5576 5576 5575 5574 5574 5573 5572 5572 5571 5570 5568 5566 5565 5564 5562 5562 5561 5561 5561 5561 5560